Year,Month,Day,Hour,Minute,Value (Times are PST for temperature in C)
2021,08,13,00,00,23.20
2021,08,13,00,01,23.10
2021,08,13,00,02,23.10
2021,08,13,00,03,23.00
2021,08,13,00,04,23.00
2021,08,13,00,05,22.90
2021,08,13,00,06,23.00
2021,08,13,00,07,23.00
2021,08,13,00,08,22.90
2021,08,13,00,09,22.90
2021,08,13,00,10,22.90
2021,08,13,00,11,22.90
2021,08,13,00,12,22.90
2021,08,13,00,13,22.90
2021,08,13,00,14,22.90
2021,08,13,00,15,22.90
2021,08,13,00,16,22.90
2021,08,13,00,17,23.00
2021,08,13,00,18,23.00
2021,08,13,00,19,23.00
2021,08,13,00,20,23.10
2021,08,13,00,21,23.00
2021,08,13,00,22,23.00
2021,08,13,00,23,22.90
2021,08,13,00,24,22.90
2021,08,13,00,25,22.90
2021,08,13,00,26,22.80
2021,08,13,00,27,22.90
2021,08,13,00,28,22.90
2021,08,13,00,29,22.90
2021,08,13,00,30,22.90
2021,08,13,00,31,22.90
2021,08,13,00,32,22.90
2021,08,13,00,33,23.00
2021,08,13,00,34,23.00
2021,08,13,00,35,23.10
2021,08,13,00,36,23.20
2021,08,13,00,37,23.30
2021,08,13,00,38,23.40
2021,08,13,00,39,23.50
2021,08,13,00,40,23.60
2021,08,13,00,41,23.60
2021,08,13,00,42,23.70
2021,08,13,00,43,23.70
2021,08,13,00,44,23.80
2021,08,13,00,45,23.80
2021,08,13,00,46,23.80
2021,08,13,00,47,23.80
2021,08,13,00,48,23.80
2021,08,13,00,49,23.90
2021,08,13,00,50,23.90
2021,08,13,00,51,23.90
2021,08,13,00,52,24.00
2021,08,13,00,53,24.00
2021,08,13,00,54,23.90
2021,08,13,00,55,23.90
2021,08,13,00,56,23.90
2021,08,13,00,57,23.90
2021,08,13,00,58,23.90
2021,08,13,00,59,23.80
2021,08,13,01,00,23.80
2021,08,13,01,01,23.80
2021,08,13,01,02,23.90
2021,08,13,01,03,23.90
2021,08,13,01,04,23.90
2021,08,13,01,05,24.00
2021,08,13,01,06,24.10
2021,08,13,01,07,24.10
2021,08,13,01,08,24.10
2021,08,13,01,09,24.20
2021,08,13,01,10,24.20
2021,08,13,01,11,24.20
2021,08,13,01,12,24.20
2021,08,13,01,13,24.20
2021,08,13,01,14,24.20
2021,08,13,01,15,24.20
2021,08,13,01,16,24.20
2021,08,13,01,17,24.20
2021,08,13,01,18,24.10
2021,08,13,01,19,24.10
2021,08,13,01,20,24.00
2021,08,13,01,21,24.00
2021,08,13,01,22,23.90
2021,08,13,01,23,23.80
2021,08,13,01,24,23.80
2021,08,13,01,25,23.70
2021,08,13,01,26,23.50
2021,08,13,01,27,23.40
2021,08,13,01,28,23.30
2021,08,13,01,29,23.20
2021,08,13,01,30,23.10
2021,08,13,01,31,23.00
2021,08,13,01,32,22.90
2021,08,13,01,33,22.80
2021,08,13,01,34,22.70
2021,08,13,01,35,22.60
2021,08,13,01,36,22.60
2021,08,13,01,37,22.50
2021,08,13,01,38,22.40
2021,08,13,01,39,22.40
2021,08,13,01,40,22.30
2021,08,13,01,41,22.30
2021,08,13,01,42,22.20
2021,08,13,01,43,22.20
2021,08,13,01,44,22.20
2021,08,13,01,45,22.10
2021,08,13,01,46,22.10
2021,08,13,01,47,22.10
2021,08,13,01,48,22.00
2021,08,13,01,49,22.00
2021,08,13,01,50,22.00
2021,08,13,01,51,22.00
2021,08,13,01,52,21.90
2021,08,13,01,53,21.90
2021,08,13,01,54,21.90
2021,08,13,01,55,21.90
2021,08,13,01,56,21.90
2021,08,13,01,57,21.90
2021,08,13,01,58,21.90
2021,08,13,01,59,21.90
2021,08,13,02,00,22.00
2021,08,13,02,01,22.00
2021,08,13,02,02,21.90
2021,08,13,02,03,21.90
2021,08,13,02,04,21.90
2021,08,13,02,05,21.90
2021,08,13,02,06,21.90
2021,08,13,02,07,21.90
2021,08,13,02,08,21.90
2021,08,13,02,09,21.90
2021,08,13,02,10,21.80
2021,08,13,02,11,21.80
2021,08,13,02,12,21.90
2021,08,13,02,13,21.90
2021,08,13,02,14,21.90
2021,08,13,02,15,21.90
2021,08,13,02,16,21.90
2021,08,13,02,17,21.90
2021,08,13,02,18,21.90
2021,08,13,02,19,21.90
2021,08,13,02,20,21.90
2021,08,13,02,21,21.90
2021,08,13,02,22,21.90
2021,08,13,02,23,21.90
2021,08,13,02,24,21.90
2021,08,13,02,25,21.90
2021,08,13,02,26,21.90
2021,08,13,02,27,21.80
2021,08,13,02,28,21.80
2021,08,13,02,29,21.80
2021,08,13,02,30,21.80
2021,08,13,02,31,21.80
2021,08,13,02,32,21.80
2021,08,13,02,33,21.80
2021,08,13,02,34,21.70
2021,08,13,02,35,21.70
2021,08,13,02,36,21.70
2021,08,13,02,37,21.70
2021,08,13,02,38,21.70
2021,08,13,02,39,21.70
2021,08,13,02,40,21.70
2021,08,13,02,41,21.70
2021,08,13,02,42,21.70
2021,08,13,02,43,21.70
2021,08,13,02,44,21.80
2021,08,13,02,45,21.80
2021,08,13,02,46,21.80
2021,08,13,02,47,21.80
2021,08,13,02,48,21.90
2021,08,13,02,49,21.90
2021,08,13,02,50,21.90
2021,08,13,02,51,21.90
2021,08,13,02,52,21.90
2021,08,13,02,53,21.90
2021,08,13,02,54,21.90
2021,08,13,02,55,21.90
2021,08,13,02,56,21.90
2021,08,13,02,57,21.90
2021,08,13,02,58,21.90
2021,08,13,02,59,21.90
2021,08,13,03,00,21.90
2021,08,13,03,01,21.90
2021,08,13,03,02,21.90
2021,08,13,03,03,21.90
2021,08,13,03,04,21.90
2021,08,13,03,05,21.90
2021,08,13,03,06,21.90
2021,08,13,03,07,21.90
2021,08,13,03,08,21.90
2021,08,13,03,09,21.80
2021,08,13,03,10,21.80
2021,08,13,03,11,21.80
2021,08,13,03,12,21.70
2021,08,13,03,13,21.70
2021,08,13,03,14,21.70
2021,08,13,03,15,21.70
2021,08,13,03,16,21.70
2021,08,13,03,17,21.70
2021,08,13,03,18,21.70
2021,08,13,03,19,21.70
2021,08,13,03,20,21.70
2021,08,13,03,21,21.80
2021,08,13,03,22,21.80
2021,08,13,03,23,21.70
2021,08,13,03,24,21.70
2021,08,13,03,25,21.70
2021,08,13,03,26,21.70
2021,08,13,03,27,21.70
2021,08,13,03,28,21.60
2021,08,13,03,29,21.60
2021,08,13,03,30,21.50
2021,08,13,03,31,21.50
2021,08,13,03,32,21.60
2021,08,13,03,33,21.60
2021,08,13,03,34,21.60
2021,08,13,03,35,21.50
2021,08,13,03,36,21.50
2021,08,13,03,37,21.50
2021,08,13,03,38,21.50
2021,08,13,03,39,21.50
2021,08,13,03,40,21.50
2021,08,13,03,41,21.50
2021,08,13,03,42,21.50
2021,08,13,03,43,21.60
2021,08,13,03,44,21.60
2021,08,13,03,45,21.60
2021,08,13,03,46,21.60
2021,08,13,03,47,21.50
2021,08,13,03,48,21.50
2021,08,13,03,49,21.50
2021,08,13,03,50,21.50
2021,08,13,03,51,21.40
2021,08,13,03,52,21.40
2021,08,13,03,53,21.40
2021,08,13,03,54,21.40
2021,08,13,03,55,21.40
2021,08,13,03,56,21.40
2021,08,13,03,57,21.40
2021,08,13,03,58,21.40
2021,08,13,03,59,21.40
2021,08,13,04,00,21.40
2021,08,13,04,01,21.40
2021,08,13,04,02,21.40
2021,08,13,04,03,21.40
2021,08,13,04,04,21.40
2021,08,13,04,05,21.40
2021,08,13,04,06,21.40
2021,08,13,04,07,21.40
2021,08,13,04,08,21.40
2021,08,13,04,09,21.30
2021,08,13,04,10,21.30
2021,08,13,04,11,21.30
2021,08,13,04,12,21.30
2021,08,13,04,13,21.30
2021,08,13,04,14,21.30
2021,08,13,04,15,21.30
2021,08,13,04,16,21.20
2021,08,13,04,17,21.20
2021,08,13,04,18,21.20
2021,08,13,04,19,21.10
2021,08,13,04,20,21.10
2021,08,13,04,21,21.10
2021,08,13,04,22,21.10
2021,08,13,04,23,21.10
2021,08,13,04,24,21.10
2021,08,13,04,25,21.00
2021,08,13,04,26,21.00
2021,08,13,04,27,21.00
2021,08,13,04,28,21.00
2021,08,13,04,29,21.00
2021,08,13,04,30,21.00
2021,08,13,04,31,21.00
2021,08,13,04,32,21.00
2021,08,13,04,33,20.90
2021,08,13,04,34,20.90
2021,08,13,04,35,20.90
2021,08,13,04,36,20.90
2021,08,13,04,37,20.90
2021,08,13,04,38,20.80
2021,08,13,04,39,20.80
2021,08,13,04,40,20.80
2021,08,13,04,41,20.80
2021,08,13,04,42,20.80
2021,08,13,04,43,20.80
2021,08,13,04,44,20.80
2021,08,13,04,45,20.80
2021,08,13,04,46,20.80
2021,08,13,04,47,20.80
2021,08,13,04,48,20.80
2021,08,13,04,49,20.80
2021,08,13,04,50,20.80
2021,08,13,04,51,20.80
2021,08,13,04,52,20.80
2021,08,13,04,53,20.80
2021,08,13,04,54,20.80
2021,08,13,04,55,20.80
2021,08,13,04,56,20.80
2021,08,13,04,57,20.80
2021,08,13,04,58,20.80
2021,08,13,04,59,20.80
2021,08,13,05,00,20.80
2021,08,13,05,01,20.80
2021,08,13,05,02,20.80
2021,08,13,05,03,20.80
2021,08,13,05,04,20.80
2021,08,13,05,05,20.80
2021,08,13,05,06,20.80
2021,08,13,05,07,20.80
2021,08,13,05,08,20.80
2021,08,13,05,09,20.70
2021,08,13,05,10,20.70
2021,08,13,05,11,20.70
2021,08,13,05,12,20.70
2021,08,13,05,13,20.60
2021,08,13,05,14,20.60
2021,08,13,05,15,20.60
2021,08,13,05,16,20.60
2021,08,13,05,17,20.60
2021,08,13,05,18,20.60
2021,08,13,05,19,20.60
2021,08,13,05,20,20.60
2021,08,13,05,21,20.60
2021,08,13,05,22,20.60
2021,08,13,05,23,20.60
2021,08,13,05,24,20.60
2021,08,13,05,25,20.60
2021,08,13,05,26,20.60
2021,08,13,05,27,20.50
2021,08,13,05,28,20.50
2021,08,13,05,29,20.50
2021,08,13,05,30,20.50
2021,08,13,05,31,20.40
2021,08,13,05,32,20.40
2021,08,13,05,33,20.40
2021,08,13,05,34,20.40
2021,08,13,05,35,20.40
2021,08,13,05,36,20.40
2021,08,13,05,37,20.30
2021,08,13,05,38,20.30
2021,08,13,05,39,20.30
2021,08,13,05,40,20.30
2021,08,13,05,41,20.30
2021,08,13,05,42,20.30
2021,08,13,05,43,20.20
2021,08,13,05,44,20.20
2021,08,13,05,45,20.30
2021,08,13,05,46,20.30
2021,08,13,05,47,20.20
2021,08,13,05,48,20.20
2021,08,13,05,49,20.20
2021,08,13,05,50,20.20
2021,08,13,05,51,20.20
2021,08,13,05,52,20.20
2021,08,13,05,53,20.10
2021,08,13,05,54,20.10
2021,08,13,05,55,20.10
2021,08,13,05,56,20.10
2021,08,13,05,57,20.10
2021,08,13,05,58,20.00
2021,08,13,05,59,20.00
2021,08,13,06,00,20.00
2021,08,13,06,01,19.90
2021,08,13,06,02,20.00
2021,08,13,06,03,20.00
2021,08,13,06,04,20.00
2021,08,13,06,05,20.00
2021,08,13,06,06,20.00
2021,08,13,06,07,20.00
2021,08,13,06,08,20.00
2021,08,13,06,09,20.00
2021,08,13,06,10,20.00
2021,08,13,06,11,19.90
2021,08,13,06,12,19.90
2021,08,13,06,13,19.90
2021,08,13,06,14,19.90
2021,08,13,06,15,19.90
2021,08,13,06,16,19.90
2021,08,13,06,17,19.90
2021,08,13,06,18,19.90
2021,08,13,06,19,19.90
2021,08,13,06,20,19.90
2021,08,13,06,21,19.90
2021,08,13,06,22,19.90
2021,08,13,06,23,19.90
2021,08,13,06,24,19.90
2021,08,13,06,25,19.90
2021,08,13,06,26,19.90
2021,08,13,06,27,19.90
2021,08,13,06,28,19.80
2021,08,13,06,29,19.80
2021,08,13,06,30,19.80
2021,08,13,06,31,19.80
2021,08,13,06,32,19.80
2021,08,13,06,33,19.80
2021,08,13,06,34,19.80
2021,08,13,06,35,19.80
2021,08,13,06,36,19.80
2021,08,13,06,37,19.80
2021,08,13,06,38,19.90
2021,08,13,06,39,19.90
2021,08,13,06,40,19.90
2021,08,13,06,41,19.90
2021,08,13,06,42,19.90
2021,08,13,06,43,19.90
2021,08,13,06,44,19.90
2021,08,13,06,45,19.90
2021,08,13,06,46,20.00
2021,08,13,06,47,20.00
2021,08,13,06,48,20.00
2021,08,13,06,49,20.00
2021,08,13,06,50,20.00
2021,08,13,06,51,20.10
2021,08,13,06,52,20.10
2021,08,13,06,53,20.10
2021,08,13,06,54,20.20
2021,08,13,06,55,20.30
2021,08,13,06,56,20.30
2021,08,13,06,57,20.40
2021,08,13,06,58,20.50
2021,08,13,06,59,20.60
2021,08,13,07,00,20.60
2021,08,13,07,01,20.60
2021,08,13,07,02,20.70
2021,08,13,07,03,20.70
2021,08,13,07,04,20.70
2021,08,13,07,05,20.70
2021,08,13,07,06,20.80
2021,08,13,07,07,20.80
2021,08,13,07,08,20.80
2021,08,13,07,09,20.80
2021,08,13,07,10,20.80
2021,08,13,07,11,20.80
2021,08,13,07,12,20.80
2021,08,13,07,13,20.80
2021,08,13,07,14,20.80
2021,08,13,07,15,20.90
2021,08,13,07,16,20.90
2021,08,13,07,17,20.90
2021,08,13,07,18,20.90
2021,08,13,07,19,20.90
2021,08,13,07,20,21.00
2021,08,13,07,21,21.00
2021,08,13,07,22,21.00
2021,08,13,07,23,21.00
2021,08,13,07,24,21.10
2021,08,13,07,25,21.10
2021,08,13,07,26,21.10
2021,08,13,07,27,21.10
2021,08,13,07,28,21.20
2021,08,13,07,29,21.20
2021,08,13,07,30,21.20
2021,08,13,07,31,21.20
2021,08,13,07,32,21.30
2021,08,13,07,33,21.30
2021,08,13,07,34,21.30
2021,08,13,07,35,21.40
2021,08,13,07,36,21.40
2021,08,13,07,37,21.40
2021,08,13,07,38,21.50
2021,08,13,07,39,21.60
2021,08,13,07,40,21.70
2021,08,13,07,41,21.70
2021,08,13,07,42,21.70
2021,08,13,07,43,21.80
2021,08,13,07,44,21.80
2021,08,13,07,45,21.90
2021,08,13,07,46,21.90
2021,08,13,07,47,22.00
2021,08,13,07,48,22.00
2021,08,13,07,49,22.10
2021,08,13,07,50,22.10
2021,08,13,07,51,22.20
2021,08,13,07,52,22.20
2021,08,13,07,53,22.20
2021,08,13,07,54,22.30
2021,08,13,07,55,22.30
2021,08,13,07,56,22.40
2021,08,13,07,57,22.50
2021,08,13,07,58,22.50
2021,08,13,07,59,22.60
2021,08,13,08,00,22.60
2021,08,13,08,01,22.70
2021,08,13,08,02,22.80
2021,08,13,08,03,22.90
2021,08,13,08,04,23.00
2021,08,13,08,05,23.10
2021,08,13,08,06,23.30
2021,08,13,08,07,23.30
2021,08,13,08,08,23.50
2021,08,13,08,09,23.60
2021,08,13,08,10,23.80
2021,08,13,08,11,23.90
2021,08,13,08,12,24.00
2021,08,13,08,13,24.20
2021,08,13,08,14,24.30
2021,08,13,08,15,24.50
2021,08,13,08,16,24.60
2021,08,13,08,17,24.80
2021,08,13,08,18,25.00
2021,08,13,08,19,25.10
2021,08,13,08,20,25.20
2021,08,13,08,21,25.30
2021,08,13,08,22,25.50
2021,08,13,08,23,25.60
2021,08,13,08,24,25.70
2021,08,13,08,25,25.80
2021,08,13,08,26,25.90
2021,08,13,08,27,26.10
2021,08,13,08,28,26.20
2021,08,13,08,29,26.30
2021,08,13,08,30,26.40
2021,08,13,08,31,26.40
2021,08,13,08,32,26.50
2021,08,13,08,33,26.50
2021,08,13,08,34,26.60
2021,08,13,08,35,26.60
2021,08,13,08,36,26.60
2021,08,13,08,37,26.60
2021,08,13,08,38,26.70
2021,08,13,08,39,26.70
2021,08,13,08,40,26.70
2021,08,13,08,41,26.80
2021,08,13,08,42,26.80
2021,08,13,08,43,26.80
2021,08,13,08,44,26.80
2021,08,13,08,45,26.80
2021,08,13,08,46,26.80
2021,08,13,08,47,26.80
2021,08,13,08,48,26.80
2021,08,13,08,49,26.90
2021,08,13,08,50,26.90
2021,08,13,08,51,26.90
2021,08,13,08,52,26.90
2021,08,13,08,53,27.00
2021,08,13,08,54,27.00
2021,08,13,08,55,27.10
2021,08,13,08,56,27.10
2021,08,13,08,57,27.00
2021,08,13,08,58,27.00
2021,08,13,08,59,27.00
2021,08,13,09,00,27.00
2021,08,13,09,01,27.00
2021,08,13,09,02,27.00
2021,08,13,09,03,27.00
2021,08,13,09,04,26.90
2021,08,13,09,05,26.90
2021,08,13,09,06,26.90
2021,08,13,09,07,26.90
2021,08,13,09,08,26.90
2021,08,13,09,09,26.90
2021,08,13,09,10,27.00
2021,08,13,09,11,27.10
2021,08,13,09,12,27.10
2021,08,13,09,13,27.10
2021,08,13,09,14,27.00
2021,08,13,09,15,27.00
2021,08,13,09,16,26.90
2021,08,13,09,17,26.90
2021,08,13,09,18,26.90
2021,08,13,09,19,26.80
2021,08,13,09,20,26.80
2021,08,13,09,21,26.80
2021,08,13,09,22,26.80
2021,08,13,09,23,26.80
2021,08,13,09,24,26.80
2021,08,13,09,25,26.80
2021,08,13,09,26,26.80
2021,08,13,09,27,26.80
2021,08,13,09,28,26.80
2021,08,13,09,29,26.80
2021,08,13,09,30,26.80
2021,08,13,09,31,26.80
2021,08,13,09,32,26.80
2021,08,13,09,33,26.80
2021,08,13,09,34,26.80
2021,08,13,09,35,26.80
2021,08,13,09,36,26.80
2021,08,13,09,37,26.90
2021,08,13,09,38,26.90
2021,08,13,09,39,27.00
2021,08,13,09,40,27.00
2021,08,13,09,41,27.00
2021,08,13,09,42,27.00
2021,08,13,09,43,27.00
2021,08,13,09,44,27.00
2021,08,13,09,45,27.00
2021,08,13,09,46,26.80
2021,08,13,09,47,26.70
2021,08,13,09,48,26.70
2021,08,13,09,49,26.60
2021,08,13,09,50,26.50
2021,08,13,09,51,26.40
2021,08,13,09,52,26.40
2021,08,13,09,53,26.40
2021,08,13,09,54,26.40
2021,08,13,09,55,26.40
2021,08,13,09,56,26.40
2021,08,13,09,57,26.40
2021,08,13,09,58,26.50
2021,08,13,09,59,26.50
2021,08,13,10,00,26.50
2021,08,13,10,01,26.50
2021,08,13,10,02,26.60
2021,08,13,10,03,26.50
2021,08,13,10,04,26.50
2021,08,13,10,05,26.50
2021,08,13,10,06,26.50
2021,08,13,10,07,26.60
2021,08,13,10,08,26.60
2021,08,13,10,09,26.50
2021,08,13,10,10,26.40
2021,08,13,10,11,26.50
2021,08,13,10,12,26.50
2021,08,13,10,13,26.60
2021,08,13,10,14,26.60
2021,08,13,10,15,26.60
2021,08,13,10,16,26.60
2021,08,13,10,17,26.60
2021,08,13,10,18,26.60
2021,08,13,10,19,26.60
2021,08,13,10,20,26.60
2021,08,13,10,21,26.60
2021,08,13,10,22,26.70
2021,08,13,10,23,26.70
2021,08,13,10,24,26.70
2021,08,13,10,25,26.70
2021,08,13,10,26,26.60
2021,08,13,10,27,26.60
2021,08,13,10,28,26.60
2021,08,13,10,29,26.50
2021,08,13,10,30,26.40
2021,08,13,10,31,26.30
2021,08,13,10,32,26.30
2021,08,13,10,33,26.30
2021,08,13,10,34,26.30
2021,08,13,10,35,26.30
2021,08,13,10,36,26.20
2021,08,13,10,37,26.30
2021,08,13,10,38,26.30
2021,08,13,10,39,26.30
2021,08,13,10,40,26.30
2021,08,13,10,41,26.40
2021,08,13,10,42,26.40
2021,08,13,10,43,26.50
2021,08,13,10,44,26.50
2021,08,13,10,45,26.60
2021,08,13,10,46,26.60
2021,08,13,10,47,26.60
2021,08,13,10,48,26.70
2021,08,13,10,49,26.70
2021,08,13,10,50,26.70
2021,08,13,10,51,26.80
2021,08,13,10,52,26.80
2021,08,13,10,53,26.90
2021,08,13,10,54,26.90
2021,08,13,10,55,26.90
2021,08,13,10,56,27.00
2021,08,13,10,57,26.90
2021,08,13,10,58,26.90
2021,08,13,10,59,26.90
2021,08,13,11,00,26.90
2021,08,13,11,01,26.90
2021,08,13,11,02,27.00
2021,08,13,11,03,26.90
2021,08,13,11,04,26.90
2021,08,13,11,05,26.80
2021,08,13,11,06,26.80
2021,08,13,11,07,26.70
2021,08,13,11,08,26.70
2021,08,13,11,09,26.60
2021,08,13,11,10,26.60
2021,08,13,11,11,26.60
2021,08,13,11,12,26.60
2021,08,13,11,13,26.70
2021,08,13,11,14,26.70
2021,08,13,11,15,26.70
2021,08,13,11,16,26.80
2021,08,13,11,17,26.80
2021,08,13,11,18,26.80
2021,08,13,11,19,26.80
2021,08,13,11,20,26.80
2021,08,13,11,21,26.90
2021,08,13,11,22,26.90
2021,08,13,11,23,26.90
2021,08,13,11,24,27.00
2021,08,13,11,25,27.00
2021,08,13,11,26,27.00
2021,08,13,11,27,26.90
2021,08,13,11,28,26.90
2021,08,13,11,29,26.90
2021,08,13,11,30,26.90
2021,08,13,11,31,27.00
2021,08,13,11,32,27.00
2021,08,13,11,33,27.10
2021,08,13,11,34,27.20
2021,08,13,11,35,27.20
2021,08,13,11,36,27.20
2021,08,13,11,37,27.20
2021,08,13,11,38,27.20
2021,08,13,11,39,27.20
2021,08,13,11,40,27.30
2021,08,13,11,41,27.40
2021,08,13,11,42,27.40
2021,08,13,11,43,27.50
2021,08,13,11,44,27.60
2021,08,13,11,45,27.70
2021,08,13,11,46,27.80
2021,08,13,11,47,27.80
2021,08,13,11,48,27.90
2021,08,13,11,49,28.00
2021,08,13,11,50,28.00
2021,08,13,11,51,28.00
2021,08,13,11,52,28.00
2021,08,13,11,53,28.00
2021,08,13,11,54,28.10
2021,08,13,11,55,28.10
2021,08,13,11,56,28.20
2021,08,13,11,57,28.20
2021,08,13,11,58,28.30
2021,08,13,11,59,28.30
2021,08,13,12,00,28.40
2021,08,13,12,01,28.30
2021,08,13,12,02,28.30
2021,08,13,12,03,28.40
2021,08,13,12,04,28.40
2021,08,13,12,05,28.50
2021,08,13,12,06,28.60
2021,08,13,12,07,28.70
2021,08,13,12,08,28.80
2021,08,13,12,09,28.90
2021,08,13,12,10,28.90
2021,08,13,12,11,29.00
2021,08,13,12,12,29.10
2021,08,13,12,13,29.10
2021,08,13,12,14,29.20
2021,08,13,12,15,29.30
2021,08,13,12,16,29.30
2021,08,13,12,17,29.30
2021,08,13,12,18,29.30
2021,08,13,12,19,29.30
2021,08,13,12,20,29.30
2021,08,13,12,21,29.30
2021,08,13,12,22,29.30
2021,08,13,12,23,29.30
2021,08,13,12,24,29.30
2021,08,13,12,25,29.50
2021,08,13,12,26,29.50
2021,08,13,12,27,29.60
2021,08,13,12,28,29.50
2021,08,13,12,29,29.60
2021,08,13,12,30,29.60
2021,08,13,12,31,29.70
2021,08,13,12,32,29.80
2021,08,13,12,33,29.90
2021,08,13,12,34,29.90
2021,08,13,12,35,29.90
2021,08,13,12,36,29.80
2021,08,13,12,37,29.60
2021,08,13,12,38,29.50
2021,08,13,12,39,29.40
2021,08,13,12,40,29.30
2021,08,13,12,41,29.20
2021,08,13,12,42,29.20
2021,08,13,12,43,29.20
2021,08,13,12,44,29.10
2021,08,13,12,45,29.10
2021,08,13,12,46,29.10
2021,08,13,12,47,29.10
2021,08,13,12,48,29.20
2021,08,13,12,49,29.20
2021,08,13,12,50,29.30
2021,08,13,12,51,29.30
2021,08,13,12,52,29.30
2021,08,13,12,53,29.40
2021,08,13,12,54,29.40
2021,08,13,12,55,29.50
2021,08,13,12,56,29.60
2021,08,13,12,57,29.60
2021,08,13,12,58,29.60
2021,08,13,12,59,29.70
2021,08,13,13,00,29.70
2021,08,13,13,01,29.80
2021,08,13,13,02,29.80
2021,08,13,13,03,29.80
2021,08,13,13,04,29.80
2021,08,13,13,05,29.90
2021,08,13,13,06,29.90
2021,08,13,13,07,30.00
2021,08,13,13,08,30.10
2021,08,13,13,09,30.20
2021,08,13,13,10,30.30
2021,08,13,13,11,30.40
2021,08,13,13,12,30.60
2021,08,13,13,13,30.70
2021,08,13,13,14,30.80
2021,08,13,13,15,30.90
2021,08,13,13,16,30.90
2021,08,13,13,17,31.00
2021,08,13,13,18,31.00
2021,08,13,13,19,30.90
2021,08,13,13,20,30.90
2021,08,13,13,21,30.80
2021,08,13,13,22,30.80
2021,08,13,13,23,30.80
2021,08,13,13,24,30.80
2021,08,13,13,25,30.80
2021,08,13,13,26,30.80
2021,08,13,13,27,30.70
2021,08,13,13,28,30.70
2021,08,13,13,29,30.60
2021,08,13,13,30,30.60
2021,08,13,13,31,30.60
2021,08,13,13,32,30.70
2021,08,13,13,33,30.70
2021,08,13,13,34,30.80
2021,08,13,13,35,30.90
2021,08,13,13,36,31.00
2021,08,13,13,37,31.00
2021,08,13,13,38,31.10
2021,08,13,13,39,31.20
2021,08,13,13,40,31.30
2021,08,13,13,41,31.30
2021,08,13,13,42,31.30
2021,08,13,13,43,31.30
2021,08,13,13,44,31.20
2021,08,13,13,45,31.20
2021,08,13,13,46,31.20
2021,08,13,13,47,31.20
2021,08,13,13,48,31.10
2021,08,13,13,49,31.10
2021,08,13,13,50,31.00
2021,08,13,13,51,31.00
2021,08,13,13,52,30.90
2021,08,13,13,53,30.80
2021,08,13,13,54,30.80
2021,08,13,13,55,30.70
2021,08,13,13,56,30.70
2021,08,13,13,57,30.70
2021,08,13,13,58,30.60
2021,08,13,13,59,30.50
2021,08,13,14,00,30.60
2021,08,13,14,01,30.60
2021,08,13,14,02,30.70
2021,08,13,14,03,30.80
2021,08,13,14,04,31.00
2021,08,13,14,05,31.10
2021,08,13,14,06,31.10
2021,08,13,14,07,31.00
2021,08,13,14,08,31.00
2021,08,13,14,09,30.80
2021,08,13,14,10,30.70
2021,08,13,14,11,30.50
2021,08,13,14,12,30.40
2021,08,13,14,13,30.30
2021,08,13,14,14,30.30
2021,08,13,14,15,30.30
2021,08,13,14,16,30.30
2021,08,13,14,17,30.30
2021,08,13,14,18,30.30
2021,08,13,14,19,30.40
2021,08,13,14,20,30.40
2021,08,13,14,21,30.40
2021,08,13,14,22,30.50
2021,08,13,14,23,30.60
2021,08,13,14,24,30.60
2021,08,13,14,25,30.70
2021,08,13,14,26,30.70
2021,08,13,14,27,30.80
2021,08,13,14,28,30.80
2021,08,13,14,29,30.90
2021,08,13,14,30,31.00
2021,08,13,14,31,31.10
2021,08,13,14,32,31.10
2021,08,13,14,33,31.20
2021,08,13,14,34,31.20
2021,08,13,14,35,31.30
2021,08,13,14,36,31.30
2021,08,13,14,37,31.30
2021,08,13,14,38,31.30
2021,08,13,14,39,31.30
2021,08,13,14,40,31.10
2021,08,13,14,41,31.10
2021,08,13,14,42,31.00
2021,08,13,14,43,31.00
2021,08,13,14,44,30.90
2021,08,13,14,45,31.00
2021,08,13,14,46,31.00
2021,08,13,14,47,31.10
2021,08,13,14,48,31.20
2021,08,13,14,49,31.40
2021,08,13,14,50,31.50
2021,08,13,14,51,31.60
2021,08,13,14,52,31.70
2021,08,13,14,53,31.70
2021,08,13,14,54,31.70
2021,08,13,14,55,31.80
2021,08,13,14,56,31.80
2021,08,13,14,57,31.80
2021,08,13,14,58,31.80
2021,08,13,14,59,31.80
2021,08,13,15,00,31.90
2021,08,13,15,01,31.90
2021,08,13,15,02,31.90
2021,08,13,15,03,31.80
2021,08,13,15,04,31.80
2021,08,13,15,05,31.70
2021,08,13,15,06,31.70
2021,08,13,15,07,31.60
2021,08,13,15,08,31.60
2021,08,13,15,09,31.60
2021,08,13,15,10,31.50
2021,08,13,15,11,31.60
2021,08,13,15,12,31.60
2021,08,13,15,13,31.60
2021,08,13,15,14,31.60
2021,08,13,15,15,31.60
2021,08,13,15,16,31.70
2021,08,13,15,17,31.70
2021,08,13,15,18,31.80
2021,08,13,15,19,31.90
2021,08,13,15,20,32.00
2021,08,13,15,21,32.10
2021,08,13,15,22,32.20
2021,08,13,15,23,32.20
2021,08,13,15,24,32.30
2021,08,13,15,25,32.30
2021,08,13,15,26,32.30
2021,08,13,15,27,32.30
2021,08,13,15,28,32.30
2021,08,13,15,29,32.30
2021,08,13,15,30,32.30
2021,08,13,15,31,32.30
2021,08,13,15,32,32.40
2021,08,13,15,33,32.40
2021,08,13,15,34,32.40
2021,08,13,15,35,32.50
2021,08,13,15,36,32.50
2021,08,13,15,37,32.60
2021,08,13,15,38,32.60
2021,08,13,15,39,32.60
2021,08,13,15,40,32.60
2021,08,13,15,41,32.60
2021,08,13,15,42,32.50
2021,08,13,15,43,32.50
2021,08,13,15,44,32.40
2021,08,13,15,45,32.30
2021,08,13,15,46,32.30
2021,08,13,15,47,32.20
2021,08,13,15,48,32.20
2021,08,13,15,49,32.20
2021,08,13,15,50,32.20
2021,08,13,15,51,32.20
2021,08,13,15,52,32.20
2021,08,13,15,53,32.20
2021,08,13,15,54,32.20
2021,08,13,15,55,32.20
2021,08,13,15,56,32.20
2021,08,13,15,57,32.30
2021,08,13,15,58,32.30
2021,08,13,15,59,32.30
2021,08,13,16,00,32.30
2021,08,13,16,01,32.30
2021,08,13,16,02,32.30
2021,08,13,16,03,32.30
2021,08,13,16,04,32.30
2021,08,13,16,05,32.30
2021,08,13,16,06,32.30
2021,08,13,16,07,32.30
2021,08,13,16,08,32.30
2021,08,13,16,09,32.30
2021,08,13,16,10,32.30
2021,08,13,16,11,32.30
2021,08,13,16,12,32.20
2021,08,13,16,13,32.20
2021,08,13,16,14,32.20
2021,08,13,16,15,32.20
2021,08,13,16,16,32.20
2021,08,13,16,17,32.20
2021,08,13,16,18,32.20
2021,08,13,16,19,32.20
2021,08,13,16,20,32.20
2021,08,13,16,21,32.20
2021,08,13,16,22,32.20
2021,08,13,16,23,32.20
2021,08,13,16,24,32.20
2021,08,13,16,25,32.20
2021,08,13,16,26,32.20
2021,08,13,16,27,32.20
2021,08,13,16,28,32.10
2021,08,13,16,29,32.10
2021,08,13,16,30,32.00
2021,08,13,16,31,32.00
2021,08,13,16,32,31.90
2021,08,13,16,33,31.90
2021,08,13,16,34,31.80
2021,08,13,16,35,31.80
2021,08,13,16,36,31.70
2021,08,13,16,37,31.70
2021,08,13,16,38,31.70
2021,08,13,16,39,31.80
2021,08,13,16,40,31.80
2021,08,13,16,41,31.80
2021,08,13,16,42,31.80
2021,08,13,16,43,31.80
2021,08,13,16,44,31.80
2021,08,13,16,45,31.80
2021,08,13,16,46,31.80
2021,08,13,16,47,31.80
2021,08,13,16,48,31.80
2021,08,13,16,49,31.90
2021,08,13,16,50,31.90
2021,08,13,16,51,31.90
2021,08,13,16,52,31.90
2021,08,13,16,53,31.90
2021,08,13,16,54,31.90
2021,08,13,16,55,31.90
2021,08,13,16,56,31.90
2021,08,13,16,57,31.90
2021,08,13,16,58,31.90
2021,08,13,16,59,31.90
2021,08,13,17,00,31.90
2021,08,13,17,01,31.90
2021,08,13,17,02,31.90
2021,08,13,17,03,31.90
2021,08,13,17,04,31.90
2021,08,13,17,05,31.90
2021,08,13,17,06,31.90
2021,08,13,17,07,31.90
2021,08,13,17,08,32.00
2021,08,13,17,09,31.90
2021,08,13,17,10,31.90
2021,08,13,17,11,31.90
2021,08,13,17,12,32.00
2021,08,13,17,13,32.00
2021,08,13,17,14,32.00
2021,08,13,17,15,32.00
2021,08,13,17,16,32.00
2021,08,13,17,17,32.00
2021,08,13,17,18,32.00
2021,08,13,17,19,31.90